Other Public Products
Issued by NWS Charleston, SC

Current Version | Previous Version | Text Only | Print | Product List | Glossary Off
Versions: 1 2 3 4 5 6 7 8 9 10 11 12 13 14 15 16 17 18 19 20 21 22 23 24 25 26 27 28 29 30 31 32 33 34 35 36 37 38 39 40 41 42 43 44 45 46 47 48 49 50

000
FPUS82 KCHS 181527
OPUCHS

TEST...KCHS/KSAV Gateway Observations...TEST
National Weather Service Charleston SC
1000 AM EST SAT NOV 18 2017

NOTE: "fair" indicates few or no clouds below 12,000 feet with no
significant weather and/or obstructions to visibility.

SCZ050-WAZ558-NCZ071-TXZ119-213-PAZ071-DCZ001-FLZ074-172-MI076-
NYZ176-178-MAZ016-IL014-TNZ027-NJZ106-GAZ044-MD014-181600-

...Gateway Observations for Charleston International...

CITY           SKY/WX    TMP DP  RH WIND       PRES   REMARKS
Chas Airport   MOSUNNY   68  56  65 SE7       30.04S
Seattle        CLOUDY    46  38  73 S9        30.29S
Charlotte      PTSUNNY   53  42  66 SW8       30.02F
Dallas DFW     PTSUNNY   73  46  38 N30G37    29.81R SQUALL
Dallas Love    PTSUNNY   74  49  41 NW25G40   29.82R
Philladelphia  CLOUDY    47  37  68 S10       29.91F
Wash National  CLOUDY    50  37  61 S14       29.86F
Baltimore      CLOUDY    47  36  65 VRB6      29.85F
Miami          MOSUNNY   80  63  55 NE7       30.03R
Detroit        FOG       46  44  93 CALM      29.47F VSB 3/4
Newark         CLOUDY    39  26  59 CALM      29.93F
Laguardia      CLOUDY    46  29  51 SW8       29.92F
J F K          CLOUDY    47  33  58 SW17      29.94F
Boston Logan   MOSUNNY   38  21  50 S6        29.94F WCI  33
Ft. Lauderdale MOSUNNY   78  64  61 E9        30.02S
Chicago O`Hare LGT RAIN  41  38  89 N16       29.47S
Chicago Midway LGT RAIN  44  42  93 N18       29.46R FOG
Houston Bush   CLOUDY    75  70  84 SW12G18   29.86S
Houston Hobby  MOSUNNY   74  71  91 SW12      29.87R
Nashville      CLOUDY    64  57  78 S18G25    29.71F
Atlanta        PTSUNNY   55  51  86 S7        30.00S

$$

GAZ044-118-TXZ119-213-NCZ071-DCZ001-MDZ014-506-PAZ021-071-NJZ106-
NYZ176-178-MAZ106-OHZ011-021-055-MIZ076-KYZ091-ILZ014-INZ047-
MNZ060-ONZ431-181600-

...Gateway Observations for Savannah International...

CITY           SKY/WX    TMP DP  RH WIND       PRES   REMARKS
Savannah Arpt  MOSUNNY   70  59  68 SE6       30.04F
Atlanta        PTSUNNY   55  51  86 S7        30.00S
Charlotte      PTSUNNY   53  42  66 SW8       30.02F
Dallas DFW     PTSUNNY   73  46  38 N30G37    29.81R SQUALL
Houston Bush   CLOUDY    75  70  84 SW12G18   29.86S
Wash National  CLOUDY    50  37  61 S14       29.86F
Wash Dulles    PTSUNNY   46  35  65 S12G22    29.83F
Baltimore      CLOUDY    47  36  65 VRB6      29.85F
Philadelphia   CLOUDY    47  37  68 S10       29.91F
Newark         CLOUDY    39  26  59 CALM      29.93F
Laguardia      CLOUDY    46  29  51 SW8       29.92F
J F K          CLOUDY    47  33  58 SW17      29.94F
Boston         MOSUNNY   38  21  50 S6        29.94F WCI  33
Pittsburg      RAIN      42  42 100 SE5       29.64F FOG
Akron          LGT RAIN  46  42  86 S14       29.54F FOG
Cleveland      CLOUDY    48  46  93 S10       29.54F
Cincinnati     CLOUDY    60  53  77 SW16G31   29.50F
Columbus       CLOUDY    56  49  75 SW13G18   29.52F
Detroit        FOG       46  44  93 CALM      29.47F VSB 3/4
Chicago O`Hare LGT RAIN  41  38  89 N16       29.47S
Minneapolis    CLOUDY    32  28  85 N10       29.80R WCI  24
Indianapolis   CLOUDY    62  57  83 S20G31    29.36F
Toronto Canada CLOUDY    43  41  93 SE5       29.50F FOG

$$




USA.gov is the U.S. government's official web portal to all federal, state and local government web resources and services.